Погода Верещагино

Погода Верещагино : погода сейчас, прогноз погоды и архив. Всё, что Вы хотите узнать о погоде Верещагино!

Поиск расширенной информации на нашем сайте:

Другие новости

Новости СМИ2

Главная страница сайта

Новости сайта

03.07.2017

Напоминаем, что на нашем специализированном сайте Метеоцентр.Азия вы можете получить высокодетализированные автоматические прогнозы погоды по пунктам России, СНГ и мира в авиационном формате (включающие направление и скорость ветра, видимость, явления погоды, количество и форму облачности, нижнюю и верхнюю границу облачности).


Погода Верещагино - сегодня

Время (UTC), дата Ветер
(°,м/с) 
Видим.   Явления Облачность Т
(°С)
Тd
(°С)
f(%) Тe
(°С)
Pmin
(гПа)
dP
(гПа)
Po
(мм)
O2
(г/м3)
Тmin Tmax R s Состояние
почвы
18 18.07.18 110 (В) 4000 м  слаб. ливневой дождь  10/10 600 м кучево-дожд. 
[Cb cap]
+19.4 +17 86 +33  1010  0.9  737  273           
21 18.07.18 070 (В) 4000 м  слаб. морось{ливн. осадки, дождь}  10/10 300 м 
[St]
+17.4 +16.2 93 +29  1009.6  -0.6  736  275           
00 19.07.18 080 (В) 20000 м  {ливн. осадки, дождь}  10/10 600 м 
[Frnb]
+17.3 +16.1 93 +29  1009.9  0.3  737  276           
06 19.07.18 070 (В) 20000 м  в посл. час морось{дождь}  10/10 600 м 
[Frnb]
+19.5 +17.3 87 +34  1011.8  738  274           
09 19.07.18 050 (СВ) 20000 м    9/3 600 м средняя 
[Cu hum|As trans]
+23.1 +16.4 66 +35  1011.6  0.1  738  271           
12 19.07.18 010 (С) 20000 м    9/9 600 м кучево-дожд. 
[Cb cap]
+24.4 +17.2 64 +38  1010.9  -0.5  738  269           
18 19.07.18 070 (В) 20000 м  {гроза, ливн. осадки}  8/8 1000 м 
[Sc diur, vesp]
+16.9 +16.3 96 +29  1013.8  0.9  739  277           
21 19.07.18 030 (СВ) 20000 м    3/3 1000 м 
[Sc diur, vesp]
+16.5 +15.9 96 +29  1014.2  0.3  740  278           
00 20.07.18 070 (В) 20000 м    ясно 
+15.5 +15 97 +26  1014.8  0.5  740  279           
06 20.07.18 060 (СВ) 20000 м    8/8 1000 м 
[Sc]
+21.3 +15.9 71 +32  1015.3  0.4  741  273           
09 20.07.18 070 (В) 4{10}  20000 м    9/9 600 м кучево-дожд. 
[Cb cap]
+24.3 +15.6 58 +34  1015.5  0.5  741  271           
12 20.07.18 080 (В) 4{10}  20000 м    8/8 600 м кучево-дожд. 
[Cb cap]
+25 +13.1 48 +31  1015.7  0.3  741  271           
18 20.07.18 080 (В) 20000 м    4/0 верхняя 
[Ci ing]
+18 +11.9 67 +23  1017.7  1.4  742  278           
21 20.07.18 070 (В) 20000 м    1/0 верхняя 
[Ci fib]
+15.3 +9.9 70 +17  1018.8  0.8  743  282           
00 21.07.18 060 (СВ) 20000 м    ясно 
+13.4 +9.6 78 +16  1019.2  0.2  743  284           
09 21.07.18 060 (СВ) 4{11}  20000 м    3/3 600 м 
[Cu hum]
+21.9 +9.1 44 +22  1019.1  744  276           
12 21.07.18 070 (В) 3{11}  20000 м    1/1 600 м 
[Cu hum]
+23.7 +8.7 38 +24  1018.5  -0.5  743  274           
18 21.07.18 080 (В) 20000 м    ясно 
+16.4 +8.2 58 +18  1019.6  0.6  743  281           
21 21.07.18 080 (В) 20000 м    ясно 
+13.2 +8.2 72 +14  1020.8  0.9  744  285           
00 22.07.18 070 (В) 20000 м    ясно 
+11.2 +7.2 76 +12  1021.8  0.8  745  287           
06 22.07.18 090 (В) 20000 м    8/8 600 м 
[Cu hum]
+18.7 +6.9 46 +19  1022.1  746  280           
09 22.07.18 070 (В) 2{10}  20000 м    1/1 600 м 
[Cu hum]
+21.5 +6.8 39 +22  1021.2  -0.6  745  277           
12 22.07.18 060 (СВ) 20000 м    ясно 
+22.3 +6.9 37 +22  1020.5  -0.6  745  276           
15 22.07.18 080 (В) 20000 м    ясно 
+21.1 +6.2 38 +21  1020.1  -0.5  744  277    +22.7       
18 22.07.18 080 (В) 20000 м    ясно 
+15 +7.2 60 +16  1020.9  0.2  744  283           
Время (UTC), дата Ветер
(°,м/с) 
Видим.   Явления Облачность Т
(°С)
Тd
(°С)
f(%) Тe
(°С)
Pmin
(гПа)
dP
(гПа)
Po
(мм)
O2
(г/м3)
Тmin Tmax R s Состояние
почвы

Для получения пояснительной информации подведите курсор к названию столбца.

ПОГОДА Верещагино - архив

Всё, что Вы хотите узнать о погоде Верещагино - удобно и подробно!

Выберите нужную дату (начиная с 1 января 2015* года) и нажмите кнопку "Найти".
Будут отображены архивные сводки погоды по пункту Верещагино, начиная с указанной даты.


Отображать данные в формате CSV (для использования в таблицах Excel)


Внимание! Наш архив погоды предназначен исключительно для личного некоммерческого использования в познавательных целях. Если Вам необходимы официальные справки о состоянии погоды (для производственных, юридических, коммерческих и т.п. целей), обращайтесь в органы Росгидромета.

*Примечание: данная дата относится к архиву по метеостанциям СССР (Россия, СНГ, Балтия).
Архив по метеостанциям Зарубежной Европы и Азии (кроме Китая) хранится 10 дней, по другим регионам земного шара (Китай, Африка, Америка, Австралия, Океания) - 1 день.

Верещагино - район местоположения метеостанции


Название, широта, долгота, высота метеостанции:
Верещагино 58.1°ш. 54.7°д. 226 м над ур. моря [Российская Федерация]

Дополнительная информация

В oтличие oт бoльшинства пoгoдных сайтoв мы публикуем пoдрoбную метеoинфoрмацию в детальнoм прoфессиoнальнoм фoрмате.

Характеристики температуры и влажнoсти вoздуха измеряются на высoте 2 м в тени вдали oт зданий и деревьев.
Скoрoсть ветра измеряется на высoте 10 м (на урoвне рoста челoвека скoрoсть ветра ниже в 1.5-2 раза). Если метеoстанция нахoдится в гoрoде или в лесу, тo скoрoсть ветра занижена на 2-4 м/с пo сравнению с oткрытым местoм. Скoрoсть ветра над акватoриями крупных рек и oзёр, а также на вершинах хoлмoв на 2-5 м/с выше, чем в oбычных услoвиях.
Атмoсфернoе давление в разных тoчках местнoсти мoжет значительнo oтличаться oт давления на метеoстанции, в зависимoсти oт услoвий рельефа (при пoдъёме на 10 м давление пoнижается примернo на 1 мм рт.ст.).